Voltar ao catálogo

ORBCOMM FM 4

AtivoComunicaçõesLEO
NORAD 25159·PAYLOAD·🇺🇸 United States

Lançado Feb 10, 1998 de Vandenberg Space Force Base

Loading…

Próximas Passagens (próximas 24 horas)

TLE

AtualizadoSource: Space-Track

Época: Sep 13, 2026, 22:42 UTC

1 25159U 98007C   26256.94637612  .00000605  00000-0  25195-3 0  9991
2 25159 107.9604 352.1001 0040594 173.7935 186.3716 14.35861776489337

Acompanhe ORBCOMM FM 4 em tempo real com AllMySat

Download on the App Store